Regional Weather Roundup
Issued by NWS

Home | Current Version | Previous Version | Graphics & Text | Print | Product List | Glossary On
Versions: 1 2 3 4 5 6 7 8 9 10 11 12 13 14 15 16 17 18 19 20 21 22 23 24 25 26 27 28 29 30 31 32 33 34 35 36 37 38 39 40 41 42 43 44 45 46 47 48 49 50
000
ASUS43 KLOT 300500
RWRIL

ILLINOIS REGIONAL WEATHER ROUNDUP
NATIONAL WEATHER SERVICE CHICAGO/ROMEOVILLE IL
1100 PM CST THU JAN 29 2015

NOTE: "FAIR" INDICATES FEW OR NO CLOUDS BELOW 12,000 FEET WITH NO
SIGNIFICANT WEATHER AND/OR OBSTRUCTIONS TO VISIBILITY.

* THESE STATIONS ARE NOT UNDER NWS QUALITY CONTROL. THEY ALSO MAY NOT
  REPORT WEATHER SUCH AS PRECIPITATION OR FOG.

ILZ001-002-007-009-015-016-024-300600-
NORTHWEST ILLINOIS

CITY           SKY/WX    TMP DP  RH WIND       PRES   REMARKS
MOLINE         CLOUDY    29  19  66 NW18G24   30.40R WCI  16
STERLING*      CLOUDY    30  19  64 N14       30.36R WCI  20
$$

ILZ003-004-008-010-011-017-018-300600-
NORTH CENTRAL ILLINOIS

CITY           SKY/WX    TMP DP  RH WIND       PRES   REMARKS
ROCKFORD       CLOUDY    30  16  56 N17       30.35R WCI  18
$$

ILZ005-006-012>014-019>023-300600-
NORTHEAST ILLINOIS

CITY           SKY/WX    TMP DP  RH WIND       PRES   REMARKS
CHICAGO-OHARE  FLURRIES  31  21  66 N18G32    30.28R WCI  19
CHICAGO-MIDWAY FLURRIES  34  22  61 N9        30.28R WCI  27
AURORA         CLOUDY    32  20  61 N17G29    30.30R WCI  21
WAUKEGAN       CLOUDY    29  17  61 N10G23    30.29R WCI  20
DUPAGE AIRPORT CLOUDY    32  17  54 N22G28    30.29R WCI  19
WHEELING       LGT SNOW  30  21  69 N15G22    30.31R WCI  19
NORTHERLY ISL    N/A     32  23  70 MISG        N/A
$$

LMZ740>746-300600-
SOUTHERN LAKE MICHIGAN

STATION/POSITION SKY/WX   TEMP    WIND        PRES    VSBY  WAVE
                          AIR SEA DIR/SP/G                  HT/PER
                          (F)     (DEG/KT/KT) (MB)    (MI)  (FT/S)
WAUKEGAN HARBOR            30     340/ 21/ 25   N/A
HARRISON CRIB              34     330/ 21/ 26   N/A
BURNHAM HARBOR             34     350/ 15/ 21   N/A
CALUMET HARBOR             35     310/ 10/ 19   N/A
MICHIGAN CITY              34     330/ 22/ 25   N/A
$$

ILZ025>027-034>036-040-047-049-050-058-095>099-300600-
WEST-CENTRAL ILLINOIS

CITY           SKY/WX    TMP DP  RH WIND       PRES   REMARKS
QUINCY         MOCLDY    30  21  69 NW15      30.44R WCI  19
$$

ILZ028>032-037-038-041>044-048-051>054-059>061-300600-
CENTRAL ILLINOIS

CITY           SKY/WX    TMP DP  RH WIND       PRES   REMARKS
DECATUR        CLOUDY    34  23  64 NW18G26   30.35R WCI  23
PEORIA         CLOUDY    33  20  58 NW18G28   30.37R WCI  22
SPRINGFIELD    CLOUDY    34  24  67 NW16      30.39R WCI  24
TAYLORVILLE    NOT AVBL
$$

ILZ033-039-045-046-055>057-062-063-300600-
EAST-CENTRAL ILLINOIS

CITY           SKY/WX    TMP DP  RH WIND       PRES   REMARKS
CHAMPAIGN      CLOUDY    33  28  81 NW15      30.31R WCI  23
MATTOON        CLOUDY    33  26  75 NW17      30.32R WCI  22
$$

ILZ079-100>102-300600-
SOUTHWEST ILLINOIS

CITY           SKY/WX    TMP DP  RH WIND       PRES   REMARKS
BELLEVILLE     CLOUDY    36  26  67 NW16G24   30.41R WCI  26
CAHOKIA*       CLOUDY    37  26  64 NW16      30.43R WCI  28
$$

ILZ064>066-069>071-074>076-080>082-084>086-088>090-092>094-300600-
SOUTH-CENTRAL ILLINOIS

CITY           SKY/WX    TMP DP  RH WIND       PRES   REMARKS
CARBONDALE     CLOUDY    36  26  67 N12       30.41R WCI  28
MT. VERNON     CLOUDY    36  25  64 NW5       30.39S WCI  32
$$

ILZ067-068-072-073-078-083-087-091-300600-
SOUTHEAST ILLINOIS

CITY           SKY/WX    TMP DP  RH WIND       PRES   REMARKS
LAWRENCEVILLE  CLOUDY    35  29  78 NW16      30.34R WCI  25
$$

ABBREVIATIONS USED IN REMARKS
   TC - TEMPERATURE IN CELSIUS
  WCI - WIND CHILL INDEX
   HX - HEAT INDEX
  VSB - VISIBILITY
$$



USA.gov is the U.S. government's official web portal to all federal, state and local government web resources and services.